Content
SEND FEEDBACK

Daily
Averages
Monthly
Summary
French Polynesia

PAPEETE, FRENCH POLYNESIA


Home > Oceania > French Polynesia
Elevation: 2 meters     Latitude: 17 33S     Longitude: 149 36W

WEATHER
 
SELECT A DAY
Number of Records: 208,134;   Date Range: 6/30/96 - 7/23/14
 
SHARE

PRINT THIS DATA

[ ← Previous Day ]
WEATHER ALMANAC - 29 OCTOBER, 2013
[ Next Day → ]
[ °F ]   °C
Weather ElementAverageHighLow
Temperature24 °C28 °C (2:30 pm)19.4 °C (5:00 am)
Dewpoint15.7 °C17 °C (2:30 pm)14 °C (9:00 am)
Humidity59.4 %78 % (3:00 am)41 % (8:00 am)
Barometer1013.5 hPa1015.2 hPa (8:30 am)1012.2 hPa (12:30 am)
Wind Speed9 km/h25.3 km/h (11:00 am)
Weather ElementAverage
Visibility12.1 km
Wind DirectionSSE (159.3 °)

Weather ElementTotal
Precipitation---
Cooling Degree Days5.4 (Base 18.3)
Growing Degree Days13.7 (Base 10)
Averaged from 54 records on 29 October, 2013
WEATHER CONDITIONS BREAKOUT
WIND DIRECTION BREAKOUT
WEATHER BY HOUR - 29 OCTOBER, 2013
[ °F ]   °C
Local TimeTemperatureDewpointHumidityBarometerVisibilityWind DirectionWind SpeedGust SpeedPrecipitationEventsConditions
12:30 AM21 °C15 °C68 %1012.2 hPa10 kmSouth (180°)11.1 km/hScattered Clouds
1:00 AM21 °C15 °C68 %1012.2 hPa10 kmSouth (180°)11.1 km/hScattered Clouds
1:30 AM21 °C15 °C68 %1012.2 hPa10 kmSouth (180°)11.1 km/hScattered Clouds
2:00 AM20.6 °C15.6 °C66 %1012.5 hPa19.3 kmSouth (170°)11.1 km/hScattered Clouds
2:00 AM21 °C16 °C73 %1012.2 hPa10 kmSouth (170°)11.1 km/hScattered Clouds
2:30 AM21 °C16 °C73 %1012.2 hPa10 kmSouth (180°)11.1 km/hScattered Clouds
3:00 AM20 °C16 °C78 %1012.2 hPa10 kmCalmScattered Clouds
3:30 AM20 °C16 °C78 %1012.2 hPa10 kmESE (120°)1.9 km/h
4:00 AM20 °C16 °C78 %1012.2 hPa10 kmESE (120°)1.9 km/hPartly Cloudy
4:30 AM20 °C15 °C73 %1012.2 hPa10 kmSouth (170°)9.3 km/hPartly Cloudy
5:00 AM19.4 °C15 °C67 %1013.2 hPa59.5 kmSSE (160°)3.7 km/hClear
5:00 AM20 °C15 °C73 %1013.2 hPa10 kmSSE (160°)3.7 km/h
5:30 AM20 °C15 °C73 %1013.2 hPa10 kmESE (120°)5.6 km/h
6:00 AM20 °C15 °C73 %1013.2 hPa10 kmESE (110°)7.4 km/hPartly Cloudy
6:30 AM22 °C16 °C69 %1014.2 hPa10 kmSouth (190°)9.3 km/hPartly Cloudy
7:00 AM24 °C16 °C61 %1014.2 hPa10 kmSouth (180°)5.6 km/hPartly Cloudy
7:30 AM25 °C15 °C54 %1014.2 hPa10 kmCalmPartly Cloudy
8:00 AM25.6 °C15 °C41 %1014.9 hPa19.3 kmNW (310°)7.2 km/hPartly Cloudy
8:00 AM26 °C15 °C51 %1014.2 hPa10 kmNW (310°)3.7 km/hPartly Cloudy
8:30 AM26 °C16 °C54 %1015.2 hPa10 kmWSW (250°)7.4 km/hPartly Cloudy
9:00 AM26 °C14 °C47 %1014.2 hPa10 kmSW (230°)11.1 km/hPartly Cloudy
9:30 AM27 °C16 °C51 %1014.2 hPa10 kmSW (220°)13 km/hPartly Cloudy
10:00 AM27 °C16 °C51 %1014.2 hPa10 kmSSW (210°)13 km/hPartly Cloudy
10:30 AM27 °C16 °C51 %1014.2 hPa10 kmSSW (210°)14.8 km/hScattered Clouds
11:00 AM26.7 °C16.1 °C42 %1014.6 hPa19.3 kmSW (220°)25.3 km/hMostly Cloudy
11:00 AM27 °C16 °C51 %1014.2 hPa10 kmSW (220°)13 km/hMostly Cloudy
11:30 AM27 °C16 °C51 %1014.2 hPa10 kmSSW (210°)9.3 km/hMostly Cloudy
12:00 PM27 °C16 °C51 %1013.2 hPa10 kmSSW (200°)13 km/hMostly Cloudy
12:30 PM27 °C16 °C51 %1013.2 hPa10 kmSW (220°)9.3 km/hMostly Cloudy
1:00 PM27 °C16 °C51 %1013.2 hPa10 kmSSW (210°)11.1 km/hMostly Cloudy
1:30 PM27 °C16 °C51 %1012.2 hPa10 kmSW (220°)9.3 km/hMostly Cloudy
2:00 PM26.7 °C16.1 °C42 %1012.9 hPa19.3 kmSW (230°)18 km/hMostly Cloudy
2:00 PM27 °C16 °C51 %1012.2 hPa10 kmSW (230°)9.3 km/hMostly Cloudy
2:30 PM28 °C17 °C51 %1012.2 hPa10 kmVariable5.6 km/hMostly Cloudy
3:00 PM28 °C16 °C48 %1012.2 hPa10 kmVariable5.6 km/hMostly Cloudy
3:30 PM27 °C16 °C51 %1012.2 hPa10 kmSSW (210°)11.1 km/hMostly Cloudy
4:00 PM28 °C16 °C48 %1012.2 hPa10 kmSW (220°)9.3 km/hMostly Cloudy
4:30 PM27 °C16 °C51 %1012.2 hPa10 kmSW (220°)13 km/hMostly Cloudy
5:00 PM26.7 °C16.1 °C43 %1012.9 hPa19.3 kmSW (220°)25.3 km/hMostly Cloudy
5:00 PM27 °C16 °C51 %1012.2 hPa10 kmSW (220°)13 km/hMostly Cloudy
5:30 PM26 °C15 °C51 %1013.2 hPa10 kmSouth (190°)9.3 km/hScattered Clouds
6:00 PM26 °C16 °C54 %1013.2 hPa10 kmSSW (210°)13 km/hScattered Clouds
6:30 PM25 °C15 °C54 %1013.2 hPa10 kmSSW (200°)11.1 km/hScattered Clouds
7:00 PM25 °C15 °C54 %1014.2 hPa10 kmVariable3.7 km/hPartly Cloudy
8:00 PM22.8 °C15.6 °C54 %1014.6 hPa19.3 kmEast (100°)7.4 km/hScattered Clouds
8:00 PM23 °C16 °C65 %1014.2 hPa10 kmEast (100°)7.4 km/hPartly Cloudy
8:30 PM22 °C16 °C69 %1014.2 hPa10 kmEast (100°)7.4 km/hPartly Cloudy
9:00 PM22 °C16 °C69 %1014.2 hPa10 kmEast (100°)7.4 km/hPartly Cloudy
9:30 PM22 °C16 °C69 %1015.2 hPa10 kmEast (100°)7.4 km/hPartly Cloudy
10:00 PM22 °C16 °C69 %1015.2 hPa10 kmEast (100°)5.6 km/hPartly Cloudy
10:30 PM22 °C16 °C69 %1015.2 hPa10 kmESE (110°)7.4 km/hPartly Cloudy
11:00 PM21.7 °C16.7 °C64 %1015.2 hPa19.3 kmESE (110°)5.6 km/hScattered Clouds
11:00 PM22 °C16 °C69 %1015.2 hPa10 kmVariable5.6 km/hPartly Cloudy
11:30 PM21 °C16 °C73 %1014.2 hPa10 kmCalmPartly Cloudy
Hourly data recorded from NTAA, located 0 kilometers away from Papeete, French Polynesia







STORIES FROM OUR PARTNERS